{"data":{"norad_id":45361,"epoch":"2026-08-28T12:05:27.663360Z","epoch_age_seconds":2001254,"freshness":"OLD","line1":"1 45361U 20019B   26240.50379240  .01658200  11951-4  57918-3 0  9991","line2":"2 45361  53.0187 319.8489 0006535 353.2264   6.8686 16.24476463357799","mean_motion":16.24476463,"eccentricity":0.0006535,"inclination_deg":53.0187,"raan_deg":319.8489,"arg_perigee_deg":353.2264,"mean_anomaly_deg":6.8686,"bstar":0.00057918,"rev_number":35779,"period_min":88.643943621115,"perigee_km":203.12208846033,"apogee_km":211.72941897944,"semimajor_km":6585.5627537199,"source":"CELESTRAK","updated_at":"2026-08-29T09:01:30.269417Z"}}